Location: La Junie
(44.7428°N, 2.1773°E)
Time: 21:06:06
(UTC+00:00)

Cosmos 1953 Rocket - Pass Details

Date: 15 May 2026
Orbit: 597 x 628 km, 82.5° (Epoch: 8 June)

Event Time Altitude Azimuth Distance (km) Brightness Sun altitude
Rises 22:13:17 0° 348° (NNW) 2,876 8.4 -22.7°
Reaches altitude 10° 22:15:32 10° 346° (NNW) 1,963 7.2 -22.8°
Maximum altitude 22:19:50 67° 265° (W) 654 3.6 -23.1°
Enters shadow 22:20:10 64° 234° (SW) 670 3.5 -23.2°
